EW7641 Weather Reports


Display with metric or nautical units.
time (UTC)temp
F
wind
direction
speed
MPH
gust
MPH
rain 1hr
in
rain 24hr
in
rain mn
in
humidity
%
barometer
mb
20260505074839 47 296 0.0 2.0 0.00 0.12 0.00 91 1010.1
20260505073359 47 296 0.0 2.0 0.00 0.12 0.00 91 1010.6
20260505071838 47 296 0.0 0.0 0.00 0.12 0.00 91 1010.6
20260505070355 47 296 0.0 0.0 0.00 0.12 0.00 91 1011.0
20260505064828 47 296 0.0 0.0 0.00 0.12 0.00 91 1011.0
20260505063332 47 296 0.0 0.0 0.00 0.12 0.00 91 1011.1
20260505061840 47 296 0.0 0.0 0.00 0.12 0.00 91 1011.0
20260505060333 47 296 0.0 0.0 0.00 0.12 0.00 90 1011.1
20260505054834 47 296 0.0 0.0 0.00 0.12 0.12 91 1011.3
20260505053326 47 296 0.0 0.0 0.02 0.12 0.12 90 1011.2
20260505051847 47 296 0.0 1.0 0.04 0.12 0.12 90 1011.3
20260505050341 47 296 0.0 0.0 0.05 0.12 0.12 90 1011.4
20260505040343 48 296 0.0 3.0 0.07 0.07 0.07 86 1011.9
20260505034842 49 238 2.0 5.0 0.06 0.06 0.06 84 1011.7
20260505033329 50 219 0.0 3.0 0.03 0.03 0.03 79 1011.3
20260505031849 51 224 2.0 10.0 0.02 0.02 0.02 75 1011.0
20260505030339 53 193 6.0 12.0 0.00 0.00 0.00 61 1010.8
20260505024833 53 214 5.0 10.0 0.00 0.00 0.00 60 1010.4
20260505023329 54 280 0.0 0.0 0.00 0.00 0.00 61 1010.1
20260505021827 53 280 0.0 0.0 0.00 0.00 0.00 61 1010.0
20260505020341 54 280 0.0 0.0 0.00 0.00 0.00 62 1009.8
20260505014840 55 360 0.0 0.0 0.00 0.00 0.00 59 1009.7
20260505013325 56 280 0.0 0.0 0.00 0.00 0.00 55 1009.2
20260505011845 56 281 0.0 0.0 0.00 0.00 0.00 55 1009.5
20260505010340 56 281 0.0 0.0 0.00 0.00 0.00 55 1009.2
20260505004832 56 280 0.0 9.0 0.00 0.00 0.00 59 1009.5
20260505003343 57 307 6.0 12.0 0.00 0.00 0.00 52 1009.5
20260505001843 59 360 3.0 11.0 0.00 0.00 0.00 45 1009.5
20260505000336 60 301 2.0 11.0 0.00 0.00 0.00 42 1009.1
20260504234859 60 333 4.0 11.0 0.00 0.00 0.00 40 1008.9
20260504233336 62 312 3.0 10.0 0.00 0.00 0.00 37 1008.4
20260504231838 62 318 1.0 12.0 0.00 0.00 0.00 36 1007.8
20260504230409 62 360 7.0 14.0 0.00 0.00 0.00 35 1007.8
20260504224845 63 311 8.0 15.0 0.00 0.00 0.00 34 1007.5
20260504223355 64 340 8.0 15.0 0.00 0.00 0.00 33 1007.4
20260504221859 68 338 0.0 10.0 0.00 0.00 0.00 24 1007.0
20260504220419 69 328 5.0 9.0 0.00 0.00 0.00 24 1006.7
20260504214843 69 327 3.0 9.0 0.00 0.00 0.00 25 1006.6
20260504213353 68 316 0.0 0.0 0.00 0.00 0.00 25 1006.9
20260504211909 68 327 0.0 10.0 0.00 0.00 0.00 27 1007.1
20260504210414 68 16 3.0 13.0 0.00 0.00 0.00 27 1007.4
20260504204927 67 331 5.0 13.0 0.00 0.00 0.00 28 1007.7
20260504203358 66 360 8.0 15.0 0.00 0.00 0.00 28 1007.8
20260504201832 66 317 8.0 15.0 0.00 0.00 0.00 28 1007.9
20260504200341 67 319 8.0 16.0 0.00 0.00 0.00 27 1007.8
20260504194848 69 310 5.0 14.0 0.00 0.00 0.00 26 1008.0
20260504193342 67 11 4.0 16.0 0.00 0.00 0.00 27 1007.9
20260504191919 68 355 2.0 16.0 0.00 0.00 0.00 28 1007.8
20260504190330 68 343 1.0 17.0 0.00 0.00 0.00 27 1007.6
20260504184904 68 360 0.0 13.0 0.00 0.00 0.00 28 1007.9
20260504183403 69 360 6.0 14.0 0.00 0.00 0.00 24 1007.8
20260504181847 69 13 0.0 13.0 0.00 0.00 0.00 22 1007.6
20260504180334 71 322 0.0 0.0 0.00 0.00 0.00 23 1007.6
20260504174828 71 311 0.0 18.0 0.00 0.00 0.00 21 1007.5
20260504173343 71 190 1.0 10.0 0.00 0.00 0.00 19 1007.6
20260504171828 72 227 5.0 12.0 0.00 0.00 0.00 19 1007.8
20260504170437 72 204 0.0 10.0 0.00 0.00 0.00 20 1008.0
20260504160336 68 170 0.0 1.0 0.00 0.00 0.00 23 1008.9
20260504150333 63 212 0.0 14.0 0.00 0.00 0.00 25 1009.5
20260504140331 58 215 8.0 12.0 0.00 0.00 0.00 28 1009.7
20260504130344 54 198 9.0 17.0 0.00 0.00 0.00 32 1009.2
20260504110332 51 195 0.0 11.0 0.00 0.00 0.00 36 1009.6
20260504100330 51 236 0.0 0.0 0.00 0.00 0.00 37 1009.8
20260504081837 54 236 0.0 0.0 0.00 0.00 0.00 36 1010.6
20260504080353 55 236 0.0 0.0 0.00 0.00 0.00 39 1010.6